DLH13AN EDDB-EKCH

Flight info

Callsign DLH13AN
Flight time 0h 44m
Altitude 30000
Route GERGA3Q GERGA M725 RENKI Y89 USEDU DCT BINZE Z14 BANKU DCT KOSEB T298 MONAK
Aircraft A320/M-SDE3FGHIRWY/LB1

Departure

Time 2026-05-06 15:57
Airport Berlin Brandenburg Airport (EDDB)

Arrival

Time 2026-05-06 16:41
Airport Copenhagen Kastrup Airport (EKCH)
Time Latitude Longitude Altitude Speed Heading
2026-05-06 15:34 52.36504 13.50518 154 ft 0 kts 69°
2026-05-06 15:38 52.36504 13.50516 154 ft 2 kts 69°
2026-05-06 15:39 52.36495 13.50477 154 ft 4 kts 71°
2026-05-06 15:39 52.36487 13.50436 154 ft 4 kts 73°
2026-05-06 15:39 52.36479 13.50393 154 ft 4 kts 76°
2026-05-06 15:39 52.36473 13.50350 154 ft 4 kts 79°
2026-05-06 15:40 52.36470 13.50316 154 ft 4 kts 79°
2026-05-06 15:40 52.36461 13.50276 154 ft 4 kts 50°
2026-05-06 15:40 52.36441 13.50253 154 ft 4 kts
2026-05-06 15:40 52.36426 13.50254 154 ft 0 kts 339°
2026-05-06 15:41 52.36504 13.50518 155 ft 0 kts 69°
2026-05-06 15:41 52.36505 13.50518 154 ft 0 kts 69°
2026-05-06 15:47 52.36498 13.50489 154 ft 4 kts 69°
2026-05-06 15:47 52.36488 13.50448 154 ft 4 kts 69°
2026-05-06 15:47 52.36480 13.50415 154 ft 4 kts 73°
2026-05-06 15:48 52.36481 13.50381 154 ft 4 kts 141°
2026-05-06 15:48 52.36503 13.50363 154 ft 4 kts 159°
2026-05-06 15:48 52.36510 13.50359 154 ft 0 kts 159°
2026-05-06 15:51 52.36498 13.50366 154 ft 9 kts 159°
2026-05-06 15:51 52.36424 13.50413 154 ft 11 kts 159°
2026-05-06 15:51 52.36361 13.50454 154 ft 9 kts 158°
2026-05-06 15:51 52.36307 13.50489 154 ft 8 kts 158°
2026-05-06 15:52 52.36263 13.50518 154 ft 6 kts 158°
2026-05-06 15:52 52.36227 13.50542 154 ft 5 kts 158°
2026-05-06 15:52 52.36191 13.50565 154 ft 11 kts 158°
2026-05-06 15:52 52.36070 13.50640 154 ft 22 kts 160°
2026-05-06 15:53 52.35922 13.50729 156 ft 23 kts 159°
2026-05-06 15:53 52.35801 13.50717 154 ft 17 kts 235°
2026-05-06 15:53 52.35756 13.50557 154 ft 15 kts 250°
2026-05-06 15:53 52.35722 13.50410 154 ft 13 kts 249°
2026-05-06 15:54 52.35692 13.50279 154 ft 13 kts 249°
2026-05-06 15:54 52.35641 13.50071 154 ft 26 kts 250°
2026-05-06 15:54 52.35563 13.49739 154 ft 37 kts 249°
2026-05-06 15:54 52.35460 13.49308 154 ft 42 kts 249°
2026-05-06 15:55 52.35358 13.48873 154 ft 36 kts 249°
2026-05-06 15:55 52.35279 13.48544 154 ft 21 kts 248°
2026-05-06 15:55 52.35177 13.48520 154 ft 16 kts 160°
2026-05-06 15:55 52.35102 13.48625 154 ft 15 kts 107°
2026-05-06 15:56 52.35081 13.48834 154 ft 23 kts 99°
2026-05-06 15:56 52.35078 13.49090 154 ft 19 kts 75°
2026-05-06 15:56 52.35128 13.49294 154 ft 24 kts 69°
2026-05-06 15:56 52.35275 13.49907 154 ft 91 kts 69°
2026-05-06 15:57 52.35572 13.51162 155 ft 143 kts 69°
2026-05-06 15:57 52.35975 13.52858 392 ft 167 kts 69°
2026-05-06 15:57 52.36139 13.54746 1068 ft 174 kts 103°
2026-05-06 15:57 52.35406 13.56317 1768 ft 181 kts 144°
2026-05-06 15:58 52.34306 13.57506 2186 ft 200 kts 144°
2026-05-06 15:58 52.33107 13.58806 2680 ft 211 kts 144°
2026-05-06 15:58 52.31901 13.60139 3286 ft 214 kts 140°
2026-05-06 15:58 52.31059 13.62095 3835 ft 217 kts 103°
2026-05-06 15:59 52.31175 13.64622 4194 ft 235 kts 67°
2026-05-06 15:59 52.31816 13.67130 4885 ft 242 kts 69°
2026-05-06 15:59 52.32356 13.69781 5593 ft 249 kts 72°
2026-05-06 15:59 52.32852 13.72548 6278 ft 258 kts 77°
2026-05-06 16:00 52.32972 13.75521 6806 ft 272 kts 96°
2026-05-06 16:00 52.32801 13.78722 7198 ft 292 kts 96°
2026-05-06 16:00 52.32648 13.82078 7903 ft 299 kts 95°
2026-05-06 16:00 52.32511 13.85496 8728 ft 303 kts 95°
2026-05-06 16:01 52.32384 13.88960 9570 ft 307 kts 95°
2026-05-06 16:01 52.32302 13.91269 10066 ft 309 kts 95°
2026-05-06 16:01 52.32176 13.94793 10813 ft 312 kts 96°
2026-05-06 16:01 52.32106 13.98369 11552 ft 318 kts 87°
2026-05-06 16:02 52.32678 14.01884 12225 ft 326 kts 64°
2026-05-06 16:02 52.34034 14.04861 12924 ft 329 kts 40°
2026-05-06 16:02 52.36013 14.06874 13248 ft 345 kts 16°
2026-05-06 16:02 52.38418 14.07428 13398 ft 358 kts 352°
2026-05-06 16:03 52.40947 14.06919 13668 ft 372 kts 348°
2026-05-06 16:03 52.43534 14.06347 14227 ft 378 kts 348°
2026-05-06 16:03 52.46149 14.05776 14851 ft 381 kts 349°
2026-05-06 16:03 52.48790 14.05211 15480 ft 384 kts 349°
2026-05-06 16:04 52.51421 14.04655 16083 ft 388 kts 349°
2026-05-06 16:04 52.54111 14.04091 16691 ft 391 kts 349°
2026-05-06 16:04 52.56828 14.03523 17281 ft 394 kts 349°
2026-05-06 16:04 52.59562 14.02952 17865 ft 398 kts 349°
2026-05-06 16:05 52.62317 14.02376 18397 ft 401 kts 349°
2026-05-06 16:05 52.65095 14.01793 18890 ft 404 kts 348°
2026-05-06 16:05 52.67898 14.01199 19385 ft 407 kts 348°
2026-05-06 16:05 52.70716 14.00596 19874 ft 410 kts 348°
2026-05-06 16:06 52.73559 13.99984 20372 ft 413 kts 348°
2026-05-06 16:06 52.76417 13.99369 20859 ft 416 kts 348°
2026-05-06 16:06 52.79293 13.98753 21327 ft 418 kts 348°
2026-05-06 16:06 52.82191 13.98136 21789 ft 421 kts 348°
2026-05-06 16:07 52.85108 13.97517 22249 ft 424 kts 348°
2026-05-06 16:07 52.88046 13.96895 22712 ft 427 kts 348°
2026-05-06 16:07 52.91010 13.96403 23147 ft 432 kts 354°
2026-05-06 16:07 52.94043 13.96615 23602 ft 438 kts
2026-05-06 16:08 52.97040 13.97170 23965 ft 440 kts
2026-05-06 16:08 53.00093 13.97739 24313 ft 443 kts
2026-05-06 16:08 53.03172 13.98313 24655 ft 446 kts
2026-05-06 16:08 53.06274 13.98887 24983 ft 450 kts
2026-05-06 16:09 53.09395 13.99464 25308 ft 453 kts
2026-05-06 16:09 53.12546 14.00048 25634 ft 456 kts
2026-05-06 16:09 53.15707 14.00635 25958 ft 459 kts
2026-05-06 16:09 53.18888 14.01225 26313 ft 461 kts
2026-05-06 16:10 53.22083 14.01821 26668 ft 463 kts
2026-05-06 16:10 53.25294 14.02419 26990 ft 466 kts
2026-05-06 16:10 53.28522 14.03019 27305 ft 468 kts
2026-05-06 16:10 53.31774 14.03627 27617 ft 471 kts
2026-05-06 16:11 53.35041 14.04237 27921 ft 474 kts
2026-05-06 16:11 53.38322 14.04850 28210 ft 476 kts
2026-05-06 16:11 53.41626 14.05470 28496 ft 479 kts
2026-05-06 16:11 53.44933 14.06093 28930 ft 478 kts
2026-05-06 16:12 53.48238 14.06720 29330 ft 478 kts
2026-05-06 16:12 53.51504 14.07339 29760 ft 475 kts
2026-05-06 16:12 53.57992 14.08564 29861 ft 461 kts
2026-05-06 16:13 53.64352 14.08395 29865 ft 455 kts 348°
2026-05-06 16:13 53.70528 14.06119 29865 ft 455 kts 346°
2026-05-06 16:14 53.76710 14.03775 29871 ft 455 kts 346°
2026-05-06 16:14 53.82894 14.01420 29868 ft 455 kts 346°
2026-05-06 16:15 53.89040 13.99067 29868 ft 455 kts 347°
2026-05-06 16:15 53.95195 13.96600 29873 ft 454 kts 340°
2026-05-06 16:16 54.01068 13.92723 29872 ft 452 kts 335°
2026-05-06 16:16 54.06911 13.88705 29869 ft 453 kts 336°
2026-05-06 16:17 54.09831 13.86696 29505 ft 450 kts 336°
2026-05-06 16:17 54.12732 13.84699 28771 ft 448 kts 336°
2026-05-06 16:17 54.15605 13.82717 28178 ft 443 kts 336°
2026-05-06 16:17 54.18445 13.80752 27598 ft 438 kts 336°
2026-05-06 16:18 54.21260 13.78798 27013 ft 434 kts 335°
2026-05-06 16:18 54.24047 13.76858 26440 ft 430 kts 335°
2026-05-06 16:18 54.26798 13.74940 25877 ft 425 kts 336°
2026-05-06 16:18 54.29528 13.73040 25347 ft 421 kts 335°
2026-05-06 16:19 54.32199 13.71186 24803 ft 417 kts 335°
2026-05-06 16:19 54.34875 13.69327 24276 ft 413 kts 335°
2026-05-06 16:19 54.37526 13.67479 23756 ft 409 kts 335°
2026-05-06 16:19 54.40147 13.65641 23220 ft 405 kts 335°
2026-05-06 16:20 54.42748 13.63810 22635 ft 401 kts 334°
2026-05-06 16:20 54.45315 13.62000 22084 ft 397 kts 334°
2026-05-06 16:20 54.47862 13.60204 21544 ft 394 kts 334°
2026-05-06 16:20 54.50388 13.58425 21037 ft 390 kts 335°
2026-05-06 16:21 54.52889 13.56663 20496 ft 388 kts 335°
2026-05-06 16:21 54.55380 13.54908 19993 ft 385 kts 335°
2026-05-06 16:21 54.57850 13.53162 19521 ft 382 kts 334°
2026-05-06 16:21 54.60299 13.51422 19045 ft 379 kts 334°
2026-05-06 16:22 54.62728 13.49696 18580 ft 376 kts 334°
2026-05-06 16:22 54.65023 13.47702 18118 ft 370 kts 325°
2026-05-06 16:22 54.67103 13.45148 17611 ft 365 kts 317°
2026-05-06 16:22 54.68926 13.42151 17115 ft 359 kts 309°
2026-05-06 16:23 54.70471 13.38796 16623 ft 355 kts 302°
2026-05-06 16:23 54.71716 13.35149 16158 ft 351 kts 294°
2026-05-06 16:23 54.72645 13.31278 15713 ft 346 kts 286°
2026-05-06 16:23 54.73378 13.27321 15289 ft 343 kts 286°
2026-05-06 16:24 54.74101 13.23401 14809 ft 341 kts 286°
2026-05-06 16:24 54.74820 13.19490 14345 ft 340 kts 286°
2026-05-06 16:24 54.75550 13.15642 14001 ft 334 kts 290°
2026-05-06 16:24 54.76728 13.12200 13568 ft 334 kts 309°
2026-05-06 16:25 54.78503 13.09614 13087 ft 334 kts 325°
2026-05-06 16:25 54.80445 13.07457 12656 ft 330 kts 326°
2026-05-06 16:25 54.82359 13.05352 12168 ft 328 kts 326°
2026-05-06 16:25 54.84282 13.03234 11578 ft 326 kts 326°
2026-05-06 16:26 54.86201 13.01114 10811 ft 327 kts 327°
2026-05-06 16:26 54.88124 12.98980 10297 ft 326 kts 327°
2026-05-06 16:26 54.90025 12.96867 9888 ft 323 kts 327°
2026-05-06 16:26 54.91878 12.94801 9743 ft 308 kts 327°
2026-05-06 16:27 54.93618 12.92861 9562 ft 287 kts 327°
2026-05-06 16:27 54.95269 12.91012 9065 ft 278 kts 327°
2026-05-06 16:27 54.96884 12.89199 8426 ft 275 kts 328°
2026-05-06 16:27 54.98494 12.87396 7766 ft 273 kts 329°
2026-05-06 16:28 55.00069 12.85633 7157 ft 272 kts 329°
2026-05-06 16:28 55.01651 12.83856 6511 ft 270 kts 329°
2026-05-06 16:28 55.03226 12.82081 5835 ft 269 kts 331°
2026-05-06 16:28 55.04795 12.80316 5152 ft 268 kts 331°
2026-05-06 16:29 55.06361 12.78554 4490 ft 268 kts 331°
2026-05-06 16:29 55.07926 12.76791 3790 ft 268 kts 331°
2026-05-06 16:29 55.09490 12.75028 3177 ft 266 kts 331°
2026-05-06 16:29 55.11035 12.73284 2997 ft 260 kts 331°
2026-05-06 16:30 55.12485 12.71638 2980 ft 238 kts 331°
2026-05-06 16:30 55.13403 12.70599 2981 ft 236 kts 330°
2026-05-06 16:30 55.15244 12.68521 2995 ft 235 kts 330°
2026-05-06 16:30 55.16618 12.66969 2998 ft 235 kts 330°
2026-05-06 16:31 55.17987 12.65422 2999 ft 234 kts 330°
2026-05-06 16:31 55.19359 12.63868 2998 ft 234 kts 330°
2026-05-06 16:31 55.20708 12.62338 3001 ft 234 kts 330°
2026-05-06 16:31 55.22071 12.60790 3001 ft 234 kts 330°
2026-05-06 16:32 55.23437 12.59239 3001 ft 234 kts 330°
2026-05-06 16:32 55.24802 12.57686 3006 ft 234 kts 330°
2026-05-06 16:32 55.26165 12.56130 3006 ft 234 kts 330°
2026-05-06 16:32 55.27526 12.54575 3006 ft 233 kts 330°
2026-05-06 16:33 55.28886 12.53021 3005 ft 233 kts 330°
2026-05-06 16:33 55.30248 12.51466 3006 ft 234 kts 330°
2026-05-06 16:33 55.31613 12.49905 3006 ft 235 kts 330°
2026-05-06 16:34 55.34359 12.46774 3003 ft 235 kts 330°
2026-05-06 16:34 55.35727 12.45209 3003 ft 235 kts 330°
2026-05-06 16:34 55.37100 12.43635 3003 ft 234 kts 330°
2026-05-06 16:34 55.38462 12.42070 3003 ft 234 kts 330°
2026-05-06 16:35 55.39812 12.40518 3003 ft 234 kts 330°
2026-05-06 16:35 55.41197 12.39022 3001 ft 232 kts 340°
2026-05-06 16:35 55.42688 12.38292 3000 ft 214 kts 360°
2026-05-06 16:35 55.44120 12.38430 3003 ft 201 kts 18°
2026-05-06 16:36 55.45392 12.39294 3010 ft 189 kts 36°
2026-05-06 16:36 55.46362 12.40596 3016 ft 168 kts 46°
2026-05-06 16:36 55.47194 12.41862 3011 ft 151 kts 46°
2026-05-06 16:36 55.47953 12.43024 2963 ft 140 kts 47°
2026-05-06 16:37 55.48678 12.44136 2830 ft 136 kts 47°
2026-05-06 16:37 55.49387 12.45226 2656 ft 135 kts 47°
2026-05-06 16:37 55.50095 12.46312 2495 ft 134 kts 48°
2026-05-06 16:37 55.50798 12.47391 2316 ft 133 kts 48°
2026-05-06 16:38 55.51496 12.48462 2139 ft 133 kts 47°
2026-05-06 16:38 55.52192 12.49532 1950 ft 132 kts 47°
2026-05-06 16:38 55.52886 12.50598 1773 ft 132 kts 49°
2026-05-06 16:38 55.53581 12.51667 1584 ft 132 kts 47°
2026-05-06 16:39 55.54277 12.52736 1400 ft 132 kts 48°
2026-05-06 16:39 55.54970 12.53803 1218 ft 133 kts 48°
2026-05-06 16:39 55.55672 12.54885 1022 ft 135 kts 48°
2026-05-06 16:39 55.56377 12.55971 820 ft 137 kts 49°
2026-05-06 16:40 55.57101 12.57086 633 ft 139 kts 47°
2026-05-06 16:40 55.57835 12.58217 430 ft 140 kts 49°
2026-05-06 16:40 55.58572 12.59354 242 ft 141 kts 49°
2026-05-06 16:40 55.59314 12.60496 50 ft 141 kts 45°
2026-05-06 16:41 55.59972 12.61534 27 ft 105 kts 41°
2026-05-06 16:41 55.60381 12.62205 23 ft 55 kts 43°
2026-05-06 16:41 55.60574 12.62318 27 ft 9 kts 10°
2026-05-06 16:41 55.60614 12.62333 27 ft 13 kts 12°
2026-05-06 16:42 55.60703 12.62367 24 ft 13 kts 12°
2026-05-06 16:42 55.60785 12.62408 24 ft 12 kts 21°
2026-05-06 16:42 55.60848 12.62483 26 ft 10 kts 40°
2026-05-06 16:42 55.60916 12.62589 24 ft 16 kts 43°
2026-05-06 16:43 55.60994 12.62715 24 ft 15 kts 40°
2026-05-06 16:43 55.61068 12.62827 24 ft 15 kts 40°
2026-05-06 16:43 55.61179 12.63000 24 ft 27 kts 40°
2026-05-06 16:43 55.61342 12.63252 25 ft 35 kts 41°
2026-05-06 16:44 55.61546 12.63567 24 ft 42 kts 41°
2026-05-06 16:44 55.61759 12.63894 24 ft 33 kts 41°
2026-05-06 16:44 55.61924 12.64109 24 ft 28 kts 23°
2026-05-06 16:44 55.62092 12.64252 24 ft 20 kts 25°
2026-05-06 16:45 55.62140 12.64292 24 ft 7 kts 25°
2026-05-06 16:45 55.62231 12.64355 21 ft 15 kts
2026-05-06 16:45 55.62294 12.64251 23 ft 13 kts 301°
2026-05-06 16:45 55.62363 12.64055 21 ft 20 kts 302°
2026-05-06 16:46 55.62397 12.63961 21 ft 6 kts 302°
2026-05-06 16:46 55.62457 12.63832 22 ft 14 kts 326°
2026-05-06 16:46 55.62537 12.63770 26 ft 11 kts 349°
2026-05-06 16:46 55.62574 12.63782 24 ft 0 kts 10°
2026-05-06 16:47 55.62575 12.63783 24 ft 0 kts 10°
2026-05-06 16:47 55.62587 12.63786 24 ft 5 kts
2026-05-06 16:48 55.62606 12.63791 24 ft 6 kts
2026-05-06 16:48 55.62645 12.63806 24 ft 5 kts 21°
2026-05-06 16:48 55.62674 12.63835 24 ft 4 kts 31°
2026-05-06 16:48 55.62739 12.63912 24 ft 16 kts 35°
2026-05-06 16:49 55.62819 12.64028 24 ft 13 kts 43°
2026-05-06 16:49 55.62865 12.64060 24 ft 0 kts 12°
2026-05-06 16:49 55.62874 12.64063 24 ft 0 kts 12°
2026-05-06 16:49 55.62875 12.64064 24 ft 0 kts 12°
2026-05-06 16:50 55.62880 12.64066 24 ft 1 kts 12°
2026-05-06 16:50 55.62882 12.64067 24 ft 0 kts 13°